CAPE
215 189 53 14 44 79 90 92 114 235 367 165 50 160 155 208 379 545 619 741 666 624 337 251 83 19 0 0 0 0 0 0
338 205 199 132 173 192 217 322 400 386 253 118 0 135 139 195 378 554 603 606 499 458 305 202 61 8 1 0 0 0 0 0
332 309 309 274 258 243 260 240 267 555 419 175 40 15 53 90 277 628 559 522 419 374 303 94 36 10 0 0 0 0 0 0
606 245 274 391 343 373 385 410 528 569 576 397 103 8 64 101 271 492 558 599 463 277 247 84 36 12 8 0 0 0 0 0
711 739 486 311 323 447 415 410 438 446 522 509 288 69 8 83 244 419 532 401 174 46 74 34 0 3 2 0 0 0 0 0
766 809 781 747 680 711 762 476 383 410 573 621 660 322 109 188 430 676 854 519 191 103 25 3 0 0 0 0 1 0 0 0
565 813 869 922 919 1092 991 572 480 484 659 789 970 743 428 152 700 867 811 634 331 84 1 1 0 0 0 0 0 0 0 0
616 681 924 1132 1342 1318 1323 769 507 555 674 855 987 992 861 672 535 977 687 506 260 23 2 0 0 0 0 1 0 0 0 0
713 738 798 1134 1551 1514 1353 1216 1045 702 568 870 1256 1124 1518 1277 1172 978 861 738 570 7 0 0 0 0 0 0 0 0 0 0
552 869 1003 1140 1769 2061 2015 1592 1474 1169 804 630 484 841 1631 1434 1373 1376 1160 680 0 0 0 0 0 0 0 0 0 0 0 0
318 700 970 1174 1549 2219 2265 2076 1777 1531 1232 1159 1055 1274 1375 1163 1078 1098 667 26 0 0 0 0 0 0 0 0 0 0 0 0
418 453 620 892 1279 1799 2198 2250 2111 1950 1762 1622 1475 1155 1095 772 640 472 94 0 3 1 2 0 0 0 0 0 0 0 0 0
754 765 716 844 1134 1487 1838 1972 1958 1776 1698 1665 1509 1027 815 591 396 77 0 3 0 0 0 0 0 0 0 0 0 0 0 0
766 1183 1173 1123 1201 1341 1503 1582 1555 1566 1633 1589 1145 329 164 1 0 0 0 0 0 0 0 0 0 0 0 0 0 0 0 0
374 820 1246 1359 1386 1353 1409 1432 1444 1457 1374 1142 283 22 2 4 3 2 0 0 0 0 0 0 0 0 0 0 0 0 2 3
510 654 970 1225 1440 1547 1600 1117 959 530 64 0 0 3 3 2 3 2 2 0 1 0 0 0 0 0 0 0 1 3 0 2
442 892 1227 1427 1501 1489 1026 704 590 381 73 4 2 1 4 2 3 4 5 3 4 2 2 0 1 0 0 0 0 1 3 6
451 671 640 547 673 469 226 56 22 0 0 0 0 0 0 0 0 0 2 3 5 3 1 1 11 5 0 0 0 7 9 9
45 18 4 14 14 1 0 0 0 0 0 0 0 0 0 0 1 3 6 10 12 10 2 0 3 2 0 0 0 0 0 0
CIN
-40 -52 -144 -137 -50 -21 -10 -8 -4 -0 -1 -0 -11 -1 -0 -0 -0 -0 -0 -0 -0 -1 -0 -3 -39 -17 -0 -0 -0 -0 -0 -0
-31 -62 -54 -52 -8 -1 -0 -0 -0 -0 -0 -1 -0 -1 -0 -0 -0 -0 -1 -0 -6 -8 -0 -6 -22 -16 -0 -0 -0 -0 -0 -0
-64 -78 -50 -51 -34 -23 -8 -1 -0 -0 -0 -0 -12 -27 -3 -3 -0 -0 -0 -0 -0 -5 -0 -9 -32 -14 -0 -0 -0 -0 -0 -0
-47 -113 -91 -36 -37 -23 -11 -1 -0 -0 -0 -0 -10 -4 -19 -6 -0 -0 -0 -0 -0 -10 -7 -7 -24 -31 -20 -10 -0 -0 -0 -0
-33 -57 -81 -104 -62 -21 -17 -12 -4 -0 -1 -0 -6 -39 -38 -16 -1 -0 -0 -13 -56 -57 -26 -34 -0 -48 -42 -4 -0 -0 -0 -0
-22 -46 -74 -82 -52 -41 -21 -28 -22 -10 -3 -1 -0 -8 -21 -4 -0 -2 -1 -3 -40 -38 -32 -0 -0 -0 -0 -0 -0 -0 -0 -0
-22 -14 -25 -26 -38 -28 -23 -47 -39 -27 -10 -5 -0 -1 -17 -32 -0 -1 -0 -0 -15 -59 -0 -0 -0 -0 -0 -0 -0 -0 -0 -0
-10 -5 -9 -18 -22 -33 -28 -66 -71 -55 -7 -0 -3 -0 -4 -3 -0 -0 -0 -6 -30 -74 -0 -0 -0 -0 -0 -0 -0 -0 -0 -0
-5 -3 -0 -11 -10 -31 -51 -49 -50 -15 -15 -3 -0 -0 -0 -1 -1 -0 -1 -2 -5 -7 -0 -0 -0 -0 -0 -0 -0 -0 -0 -0
-11 -3 -0 -1 -0 -0 -13 -28 -30 -12 -22 -85 -75 -0 -0 -6 -4 -0 -0 -21 -0 -0 -0 -0 -0 -0 -0 -0 -0 -0 -0 -0
-37 -14 -0 -3 -0 -0 -0 -7 -17 -10 -4 -28 -23 -0 -10 -28 -21 -10 -32 -81 -0 -0 -0 -0 -0 -0 -0 -0 -0 -0 -0 -0
-67 -65 -46 -14 -0 -0 -0 -1 -2 -0 -0 -0 -0 -20 -34 -62 -55 -60 -150 -0 -0 -0 -0 -0 -0 -0 -0 -0 -0 -0 -0 -1
-45 -64 -76 -72 -56 -9 -2 -3 -2 -1 -1 -0 -4 -48 -58 -77 -82 -158 -0 -0 -0 -0 -0 -0 -0 -0 -0 -0 -0 -0 -0 -0
-29 -48 -54 -56 -58 -43 -25 -19 -10 -3 -1 -0 -15 -191 -188 -0 -0 -0 -0 -0 -0 -0 -0 -0 -0 -0 -0 -0 -0 -0 -0 -0
-13 -20 -34 -42 -36 -33 -23 -26 -15 -7 -4 -14 -204 -139 -0 -0 -0 -0 -0 -0 -0 -0 -0 -0 -0 -0 -0 -0 -0 -0 -0 -0
-7 -14 -21 -41 -40 -29 -17 -93 -105 -171 -326 -0 -0 -0 -0 -0 -0 -0 -0 -0 -0 -0 -0 -0 -0 -0 -0 -0 -0 -0 -0 -0
-15 -17 -3 -14 -26 -23 -96 -142 -140 -165 -258 -0 -0 -0 -0 -0 -0 -0 -0 -0 -0 -0 -0 -0 -0 -0 -0 -0 -0 -0 -0 -0
-86 -87 -114 -133 -110 -183 -236 -287 -265 -0 -0 -0 -0 -0 -0 -0 -0 -0 -0 -0 -0 -0 -0 -0 -0 -0 -0 -0 -0 -0 -0 -0
-81 -113 -130 -163 -322 -40 -0 -0 -0 -0 -0 -0 -0 -0 -0 -0 -0 -0 -0 -0 -0 -0 -0 -0 -0 -0 -0 -0 -0 -0 -0 -0
Wind_Speed
18 19 19 21 22 22 18 14 16 15 9 8 7 6 9 9 8 8 10 8 10 9 7 8 9 7 6 7 6 5 5 4
19 18 19 19 19 20 20 19 19 14 12 11 11 10 10 10 9 12 12 12 11 11 8 8 9 7 8 8 6 6 5 4
18 19 19 20 19 19 19 19 17 14 10 11 9 9 10 10 9 11 9 10 12 11 9 9 10 7 9 9 9 7 7 5
20 20 19 18 20 20 20 20 19 16 16 11 9 9 9 10 10 9 10 12 11 12 11 9 10 8 7 10 10 11 8 6
20 21 22 22 20 18 20 20 20 17 17 12 13 11 11 10 10 9 8 10 10 12 12 10 11 8 8 9 10 9 9 7
22 23 23 22 20 18 18 20 20 20 18 17 13 15 11 10 10 9 12 12 14 13 11 11 11 9 9 8 9 10 7 7
20 21 21 21 21 20 18 21 21 21 19 20 18 16 14 11 12 8 7 8 9 12 13 10 10 11 11 10 9 10 9 4
20 22 22 21 22 21 19 22 23 22 19 19 19 18 16 16 13 10 10 8 9 13 13 11 8 8 8 10 10 5 5 3
21 21 20 22 21 23 22 22 22 18 11 10 14 20 12 11 9 8 9 9 9 8 10 10 11 9 8 5 4 5 5 3
19 22 21 20 19 18 20 20 19 16 15 15 19 15 14 9 11 10 8 6 6 8 10 11 10 10 6 7 5 6 3 4
10 14 19 17 17 18 19 19 18 19 18 17 13 14 11 13 11 10 6 6 8 10 12 11 9 9 9 10 7 5 5 3
6 7 9 11 15 17 16 16 18 15 15 16 13 10 11 9 8 6 5 8 11 10 9 8 7 9 9 6 7 7 5 5
6 6 6 9 11 11 12 13 13 13 12 11 11 9 7 7 5 5 4 5 3 5 7 7 4 9 8 7 8 6 6 6
8 9 9 10 10 11 12 12 12 11 11 11 7 9 7 7 6 6 5 5 5 5 7 8 8 8 8 8 7 6 6 6
9 10 10 10 10 10 10 9 8 7 6 6 9 8 7 6 6 6 7 7 7 8 8 9 9 9 9 8 7 8 8 8
10 10 11 12 11 10 11 9 9 9 10 9 9 9 9 9 9 9 9 9 9 9 9 8 8 7 7 8 8 6 5 6
10 11 11 10 11 11 11 10 11 11 12 11 11 10 11 10 11 9 10 9 10 10 10 10 8 5 7 4 2 3 5 9
9 9 9 9 11 12 12 11 12 12 12 12 11 11 12 11 11 11 11 10 9 9 8 5 4 1 6 7 7 8 9 10
12 11 12 12 13 13 13 13 13 13 13 13 12 12 12 11 11 11 10 9 7 4 3 2 3 4 11 8 5 8 10 12
Wind_Direction
161 163 162 167 169 164 172 173 181 187 201 188 213 200 207 217 190 205 204 206 199 211 201 190 199 190 183 197 210 196 221 209
165 172 169 187 171 170 179 183 183 186 190 193 199 199 204 208 201 221 186 209 196 202 202 187 212 198 199 195 193 192 206 200
169 178 185 190 178 183 188 188 191 194 216 198 205 203 207 214 197 206 214 210 201 202 211 191 203 203 204 193 196 194 220 198
175 184 187 192 192 190 194 194 197 191 210 202 198 212 222 206 213 199 203 216 206 211 212 210 198 210 190 199 203 210 211 193
181 188 191 194 201 194 201 200 205 205 208 214 203 209 210 211 217 202 195 214 221 212 217 212 209 206 200 198 206 215 232 208
190 191 196 198 197 202 203 207 210 209 201 221 200 213 217 206 210 211 199 192 214 216 218 212 214 210 210 204 208 212 204 246
203 195 195 197 199 200 201 210 211 212 209 200 223 208 224 216 212 190 210 210 205 215 216 208 210 213 209 209 208 208 220 141
208 203 193 196 196 197 202 207 214 209 210 211 212 225 215 228 231 193 206 205 206 216 206 198 205 210 215 212 207 202 138 130
212 213 200 198 196 195 201 207 215 206 190 226 236 221 222 221 227 212 210 214 204 182 193 199 205 202 200 121 120 123 190 195
220 214 208 204 192 196 199 211 212 211 178 189 227 232 224 221 225 224 234 202 180 175 197 203 204 199 155 123 159 180 139 146
229 217 205 204 198 192 196 210 212 206 197 199 213 224 219 222 228 228 209 208 204 204 206 200 191 164 166 173 139 158 152 112
174 209 221 222 207 193 194 205 211 212 203 190 197 205 216 211 220 217 198 216 217 212 209 203 176 190 165 125 138 128 127 130
144 153 170 184 197 194 190 199 207 201 200 191 184 169 179 190 188 168 193 203 133 137 146 174 150 107 122 135 148 146 154 177
149 150 160 162 173 175 173 186 190 186 181 176 117 97 106 90 93 96 92 104 110 107 116 128 124 127 137 149 141 153 194 216
171 160 151 151 153 154 147 152 145 130 132 139 103 100 111 121 117 111 111 109 115 121 130 123 128 142 143 149 179 201 222 231
194 178 157 150 146 145 131 121 110 113 108 107 119 129 132 136 138 131 125 123 126 130 131 128 132 146 166 184 200 215 223 243
199 201 159 143 147 139 126 130 133 138 129 128 130 132 113 103 103 104 121 114 124 132 141 154 163 166 145 192 198 234 244 257
169 156 141 144 125 134 129 127 124 121 119 117 115 114 115 114 117 119 117 110 101 106 118 141 162 172 174 204 215 255 261 268
142 137 132 128 125 120 126 124 122 121 119 118 119 119 117 118 110 111 118 126 125 103 109 172 216 228 195 210 205 275 278 280